FIN6PT EFHK-LICC

Flight info

Callsign FIN6PT
Flight time N/A
Altitude 34000
Route KOIVU Y123 LARTI DCT LUTAL DCT BERIL/N0446F350 DCT BOKSU/N0441F340 M857 SUWGI DCT TITUV/N0450F360 M985 EVINA DCT LIGDI DCT SKARY DCT VEBAL DCT SIRMI/N0448F370 DCT MOLUX DCT NERAR DCT PELEN DCT UXUTA
Aircraft A321/M-SDE3FGHIRWY/LB1

Departure

Time 2026-04-21 08:33
Airport Helsinki Vantaa Airport (EFHK)

Arrival

Time N/A
Airport Catania-Fontanarossa Airport (LICC)
Time Latitude Longitude Altitude Speed Heading
2026-04-21 07:51 60.31825 24.97047 167 ft 0 kts 243°
2026-04-21 08:23 60.31831 24.97070 166 ft 4 kts 242°
2026-04-21 08:23 60.31843 24.97119 166 ft 4 kts 250°
2026-04-21 08:24 60.31847 24.97165 166 ft 4 kts 303°
2026-04-21 08:24 60.31831 24.97188 166 ft 4 kts 333°
2026-04-21 08:24 60.31825 24.97195 166 ft 0 kts 333°
2026-04-21 08:27 60.31833 24.97186 166 ft 5 kts 333°
2026-04-21 08:27 60.31893 24.97124 166 ft 12 kts 333°
2026-04-21 08:27 60.31944 24.97072 166 ft 12 kts 333°
2026-04-21 08:27 60.32024 24.96990 166 ft 13 kts 333°
2026-04-21 08:28 60.32105 24.96899 166 ft 14 kts 330°
2026-04-21 08:28 60.32190 24.96801 166 ft 15 kts 330°
2026-04-21 08:28 60.32245 24.96665 167 ft 12 kts 250°
2026-04-21 08:28 60.32189 24.96532 168 ft 13 kts 226°
2026-04-21 08:29 60.32126 24.96398 168 ft 13 kts 227°
2026-04-21 08:29 60.32061 24.96255 168 ft 14 kts 227°
2026-04-21 08:29 60.31994 24.96107 168 ft 14 kts 228°
2026-04-21 08:29 60.31929 24.95961 169 ft 14 kts 228°
2026-04-21 08:30 60.31861 24.95809 169 ft 15 kts 227°
2026-04-21 08:30 60.31790 24.95652 170 ft 15 kts 227°
2026-04-21 08:30 60.31719 24.95497 171 ft 15 kts 227°
2026-04-21 08:30 60.31646 24.95337 170 ft 16 kts 228°
2026-04-21 08:31 60.31570 24.95165 170 ft 17 kts 228°
2026-04-21 08:31 60.31489 24.94989 168 ft 18 kts 227°
2026-04-21 08:31 60.31403 24.94784 164 ft 19 kts 248°
2026-04-21 08:31 60.31472 24.94580 163 ft 19 kts 317°
2026-04-21 08:32 60.31522 24.94521 163 ft 5 kts 17°
2026-04-21 08:32 60.31583 24.94644 165 ft 38 kts 50°
2026-04-21 08:32 60.31927 24.95390 173 ft 106 kts 47°
2026-04-21 08:32 60.32566 24.96772 193 ft 161 kts 42°
2026-04-21 08:33 60.33324 24.98438 818 ft 160 kts 44°
2026-04-21 08:33 60.34050 25.00187 1528 ft 164 kts 47°
2026-04-21 08:33 60.34805 25.01890 2222 ft 165 kts 45°
2026-04-21 08:33 60.35632 25.03679 2484 ft 185 kts 44°
2026-04-21 08:34 60.36562 25.05687 2627 ft 208 kts 44°
2026-04-21 08:34 60.37603 25.07944 2852 ft 230 kts 44°
2026-04-21 08:34 60.38718 25.10469 3241 ft 249 kts 52°
2026-04-21 08:34 60.39268 25.13815 3952 ft 261 kts 88°
2026-04-21 08:35 60.38807 25.17405 4708 ft 269 kts 111°
2026-04-21 08:35 60.38035 25.20819 5464 ft 272 kts 113°
2026-04-21 08:35 60.37192 25.24324 6252 ft 275 kts 113°
2026-04-21 08:35 60.36343 25.27811 7012 ft 278 kts 113°
2026-04-21 08:36 60.35475 25.31323 7724 ft 282 kts 117°
2026-04-21 08:36 60.34226 25.34437 8421 ft 290 kts 136°
2026-04-21 08:36 60.32504 25.36635 9106 ft 298 kts 156°
2026-04-21 08:36 60.30500 25.37596 9782 ft 305 kts 176°
2026-04-21 08:37 60.28360 25.37631 10433 ft 310 kts 179°
2026-04-21 08:37 60.26132 25.37394 10618 ft 333 kts 189°
2026-04-21 08:37 60.23829 25.36156 10750 ft 354 kts 202°
2026-04-21 08:37 60.21626 25.33756 11051 ft 365 kts 217°
2026-04-21 08:38 60.19687 25.30415 11594 ft 370 kts 225°
2026-04-21 08:38 60.17788 25.26902 12185 ft 374 kts 225°
2026-04-21 08:38 60.15854 25.23351 12768 ft 378 kts 224°
2026-04-21 08:38 60.13900 25.19773 13360 ft 383 kts 224°
2026-04-21 08:39 60.11919 25.16158 13938 ft 387 kts 224°
2026-04-21 08:39 60.09917 25.12502 14492 ft 391 kts 224°
2026-04-21 08:39 60.07897 25.08810 15032 ft 395 kts 224°
2026-04-21 08:39 60.05852 25.05086 15578 ft 399 kts 224°
2026-04-21 08:40 60.03789 25.01341 16129 ft 402 kts 224°
2026-04-21 08:40 60.01705 24.97568 16682 ft 406 kts 224°
2026-04-21 08:40 59.99603 24.93767 17242 ft 410 kts 224°
2026-04-21 08:40 59.97482 24.89935 17792 ft 413 kts 224°
2026-04-21 08:41 59.95339 24.86063 18343 ft 417 kts 224°
2026-04-21 08:41 59.93187 24.82174 18851 ft 420 kts 224°
2026-04-21 08:41 59.91004 24.78239 19325 ft 423 kts 224°
2026-04-21 08:41 59.88810 24.74297 19832 ft 426 kts 223°
2026-04-21 08:42 59.86546 24.70458 20313 ft 430 kts 217°
2026-04-21 08:42 59.83998 24.67309 20805 ft 434 kts 206°
2026-04-21 08:42 59.81200 24.65048 21296 ft 436 kts 196°
2026-04-21 08:42 59.78251 24.63587 21780 ft 438 kts 192°
2026-04-21 08:43 59.75277 24.62213 22251 ft 440 kts 192°
2026-04-21 08:43 59.72288 24.60820 22718 ft 443 kts 192°
2026-04-21 08:43 59.69280 24.59410 23170 ft 445 kts 192°
2026-04-21 08:43 59.66255 24.57990 23623 ft 448 kts 191°
2026-04-21 08:44 59.63205 24.56653 24018 ft 450 kts 190°
2026-04-21 08:44 59.60131 24.55408 24369 ft 452 kts 189°
2026-04-21 08:44 59.57030 24.54217 24699 ft 456 kts 189°
2026-04-21 08:44 59.53907 24.53046 25048 ft 458 kts 189°
2026-04-21 08:45 59.50766 24.51865 25393 ft 461 kts 189°
2026-04-21 08:45 59.47610 24.50659 25744 ft 463 kts 189°
2026-04-21 08:45 59.44440 24.49426 26094 ft 466 kts 189°
2026-04-21 08:45 59.41256 24.48172 26438 ft 468 kts 189°
2026-04-21 08:46 59.38055 24.46908 26778 ft 470 kts 189°
2026-04-21 08:46 59.34842 24.45646 27114 ft 473 kts 189°
2026-04-21 08:46 59.31608 24.44380 27448 ft 475 kts 189°
2026-04-21 08:46 59.28361 24.43113 27775 ft 477 kts 189°
2026-04-21 08:47 59.25095 24.41847 28097 ft 479 kts 189°
2026-04-21 08:47 59.21818 24.40579 28409 ft 482 kts 189°
2026-04-21 08:47 59.18522 24.39306 28727 ft 484 kts 189°
2026-04-21 08:47 59.15214 24.38023 29042 ft 486 kts 189°
2026-04-21 08:48 59.11889 24.36734 29378 ft 488 kts 189°
2026-04-21 08:48 59.08549 24.35445 29682 ft 491 kts 189°
2026-04-21 08:48 59.05192 24.34153 29996 ft 493 kts 189°
2026-04-21 08:48 59.01821 24.32864 30315 ft 495 kts 188°
2026-04-21 08:49 58.98441 24.31577 30667 ft 494 kts 188°
2026-04-21 08:49 58.95067 24.30296 31013 ft 494 kts 188°
2026-04-21 08:49 58.91697 24.29022 31357 ft 494 kts 188°
2026-04-21 08:49 58.88323 24.27748 31686 ft 494 kts 188°
2026-04-21 08:50 58.84954 24.26475 32019 ft 493 kts 188°
2026-04-21 08:50 58.81585 24.25204 32352 ft 493 kts 188°
2026-04-21 08:50 58.78216 24.23936 32680 ft 493 kts 188°
2026-04-21 08:50 58.74850 24.22667 33003 ft 493 kts 188°
2026-04-21 08:51 58.71481 24.21401 33302 ft 493 kts 188°
2026-04-21 08:51 58.68113 24.20135 33601 ft 493 kts 188°
2026-04-21 08:51 58.64744 24.18870 33905 ft 493 kts 188°
2026-04-21 08:51 58.61418 24.17624 34184 ft 494 kts 188°
2026-04-21 08:52 58.58048 24.16368 34262 ft 492 kts 188°
2026-04-21 08:52 58.51351 24.13868 34266 ft 489 kts 188°
2026-04-21 08:53 58.44668 24.11399 34263 ft 489 kts 188°
2026-04-21 08:53 58.37981 24.08944 34260 ft 490 kts 188°
2026-04-21 08:54 58.31291 24.06473 34272 ft 490 kts 188°
2026-04-21 08:54 58.24596 24.04006 34279 ft 490 kts 188°
2026-04-21 08:55 58.17894 24.01563 34285 ft 490 kts 188°
2026-04-21 08:55 58.11194 23.99124 34296 ft 490 kts 188°
2026-04-21 08:56 58.04503 23.96706 34324 ft 489 kts 188°
2026-04-21 08:56 57.97814 23.94310 34308 ft 489 kts 188°
2026-04-21 08:57 57.91128 23.91914 34301 ft 489 kts 188°
2026-04-21 08:57 57.84442 23.89578 34301 ft 488 kts 187°
2026-04-21 08:58 57.77752 23.87388 34299 ft 488 kts 187°
2026-04-21 08:58 57.71056 23.85232 34296 ft 488 kts 187°
2026-04-21 08:59 57.64366 23.83071 34295 ft 488 kts 187°
2026-04-21 08:59 57.57678 23.80883 34300 ft 487 kts 187°
2026-04-21 09:00 57.51045 23.78712 34299 ft 487 kts 187°
2026-04-21 09:00 57.44370 23.76545 34299 ft 487 kts 187°
2026-04-21 09:01 57.37703 23.74391 34298 ft 486 kts 187°
2026-04-21 09:01 57.31031 23.72251 34298 ft 486 kts 187°
2026-04-21 09:02 57.24369 23.70128 34295 ft 486 kts 187°
2026-04-21 09:02 57.17710 23.68014 34289 ft 485 kts 187°
2026-04-21 09:03 57.07722 23.64843 34286 ft 486 kts 187°
2026-04-21 09:03 57.01061 23.62731 34274 ft 486 kts 187°
2026-04-21 09:04 56.94388 23.60626 34281 ft 487 kts 187°
2026-04-21 09:04 56.87713 23.58526 34281 ft 487 kts 187°
2026-04-21 09:05 56.81035 23.56437 34279 ft 487 kts 187°
2026-04-21 09:05 56.74363 23.54358 34273 ft 486 kts 188°
2026-04-21 09:06 56.67688 23.52282 34270 ft 486 kts 188°
2026-04-21 09:06 56.61014 23.50211 34271 ft 487 kts 187°
2026-04-21 09:07 56.54339 23.48155 34269 ft 487 kts 187°
2026-04-21 09:07 56.47664 23.46110 34269 ft 486 kts 187°
2026-04-21 09:08 56.40993 23.44067 34265 ft 486 kts 187°
2026-04-21 09:08 56.34318 23.42102 34263 ft 486 kts 186°
2026-04-21 09:09 56.27651 23.40745 34263 ft 485 kts 182°
2026-04-21 09:09 56.20930 23.39702 34264 ft 485 kts 182°
2026-04-21 09:10 56.14217 23.38574 34264 ft 485 kts 183°
2026-04-21 09:10 56.07510 23.37304 34287 ft 484 kts 184°
2026-04-21 09:11 56.00818 23.36008 34277 ft 483 kts 184°
2026-04-21 09:11 55.94126 23.34766 34466 ft 483 kts 183°
2026-04-21 09:12 55.90789 23.34153 34771 ft 482 kts 183°
2026-04-21 09:12 55.87457 23.33541 35042 ft 481 kts 183°
2026-04-21 09:12 55.84125 23.32933 35214 ft 481 kts 183°
2026-04-21 09:12 55.80796 23.32329 35253 ft 481 kts 183°
2026-04-21 09:13 55.74139 23.31137 35248 ft 480 kts 183°
2026-04-21 09:13 55.67489 23.29935 35241 ft 480 kts 183°
2026-04-21 09:14 55.60849 23.28727 35242 ft 479 kts 183°
2026-04-21 09:14 55.54215 23.27520 35225 ft 479 kts 183°
2026-04-21 09:15 55.48701 23.26517 35227 ft 480 kts 183°
2026-04-21 09:15 55.42056 23.25329 35239 ft 480 kts 183°
2026-04-21 09:16 55.35418 23.24143 35235 ft 479 kts 183°
2026-04-21 09:16 55.28783 23.22961 35239 ft 479 kts 183°
2026-04-21 09:17 55.22151 23.21778 35254 ft 478 kts 183°
2026-04-21 09:17 55.15532 23.20602 35249 ft 478 kts 183°
2026-04-21 09:18 55.08915 23.19432 35247 ft 477 kts 182°
2026-04-21 09:18 55.02310 23.18274 35236 ft 477 kts 182°
2026-04-21 09:19 54.95703 23.17114 35241 ft 477 kts 182°
2026-04-21 09:19 54.89094 23.15954 35243 ft 477 kts 182°
2026-04-21 09:20 54.82531 23.14813 35244 ft 477 kts 182°
2026-04-21 09:20 54.75931 23.13670 35233 ft 477 kts 182°
2026-04-21 09:21 54.69332 23.12522 35238 ft 476 kts 182°
2026-04-21 09:21 54.62741 23.11387 35230 ft 476 kts 182°
2026-04-21 09:22 54.56149 23.10249 35241 ft 476 kts 182°
2026-04-21 09:22 54.49564 23.09116 35238 ft 476 kts 182°
2026-04-21 09:23 54.42981 23.07984 35243 ft 475 kts 182°
2026-04-21 09:23 54.36407 23.06876 35234 ft 475 kts 182°
2026-04-21 09:24 54.29870 23.05148 35239 ft 479 kts 193°
2026-04-21 09:24 54.23606 23.01114 35233 ft 481 kts 199°
2026-04-21 09:25 54.17370 22.96940 35224 ft 481 kts 198°
2026-04-21 09:25 54.11173 22.92828 35222 ft 481 kts 198°
2026-04-21 09:26 54.05069 22.88122 35222 ft 484 kts 209°
2026-04-21 09:26 53.99293 22.82218 35219 ft 484 kts 208°
2026-04-21 09:27 53.93512 22.76357 35219 ft 484 kts 208°
2026-04-21 09:27 53.87727 22.70528 35209 ft 484 kts 208°
2026-04-21 09:28 53.81934 22.64723 35208 ft 484 kts 208°
2026-04-21 09:28 53.76141 22.58925 35209 ft 484 kts 208°
2026-04-21 09:29 53.70350 22.53129 35198 ft 484 kts 208°
2026-04-21 09:29 53.64555 22.47359 35213 ft 483 kts 208°
2026-04-21 09:30 53.58760 22.41613 35207 ft 483 kts 208°
2026-04-21 09:30 53.52965 22.35883 35205 ft 483 kts 208°
2026-04-21 09:31 53.47173 22.30169 35199 ft 483 kts 208°
2026-04-21 09:31 53.41377 22.24479 35205 ft 482 kts 208°
2026-04-21 09:32 53.35589 22.18803 35193 ft 482 kts 208°
2026-04-21 09:32 53.29797 22.13134 35203 ft 482 kts 208°
2026-04-21 09:33 53.24000 22.07491 35200 ft 482 kts 208°
2026-04-21 09:33 53.18202 22.01873 35200 ft 482 kts 208°
2026-04-21 09:34 53.12403 21.96278 35195 ft 481 kts 208°
2026-04-21 09:34 53.06616 21.90687 35193 ft 481 kts 208°
2026-04-21 09:35 53.00829 21.85111 35185 ft 481 kts 207°
2026-04-21 09:35 52.97932 21.82336 35298 ft 481 kts 208°
2026-04-21 09:35 52.95036 21.79569 35602 ft 479 kts 208°
2026-04-21 09:36 52.92153 21.76818 35885 ft 478 kts 208°
2026-04-21 09:36 52.89271 21.74069 36113 ft 478 kts 208°
2026-04-21 09:36 52.83510 21.68583 36156 ft 477 kts 208°
2026-04-21 09:37 52.77792 21.63158 36160 ft 477 kts 208°
2026-04-21 09:37 52.72037 21.57704 36166 ft 477 kts 208°
2026-04-21 09:38 52.66285 21.52271 36160 ft 476 kts 208°
2026-04-21 09:38 52.60532 21.46858 36163 ft 477 kts 208°
2026-04-21 09:39 52.54767 21.41463 36164 ft 477 kts 208°
2026-04-21 09:39 52.49006 21.36079 36174 ft 476 kts 208°
2026-04-21 09:40 52.43250 21.30707 36175 ft 476 kts 208°
2026-04-21 09:40 52.37494 21.25352 36175 ft 476 kts 208°
2026-04-21 09:41 52.31739 21.20002 36184 ft 476 kts 208°
2026-04-21 09:41 52.25976 21.14684 36187 ft 475 kts 208°
2026-04-21 09:42 52.20221 21.09389 36188 ft 475 kts 208°
2026-04-21 09:42 52.14464 21.04105 36190 ft 475 kts 208°
2026-04-21 09:43 52.08702 20.98834 36194 ft 475 kts 208°
2026-04-21 09:43 52.02952 20.93570 36173 ft 474 kts 208°
2026-04-21 09:44 51.97201 20.88323 36174 ft 474 kts 208°
2026-04-21 09:44 51.91447 20.83102 36169 ft 474 kts 208°
2026-04-21 09:45 51.85693 20.77896 36174 ft 474 kts 208°
2026-04-21 09:45 51.79973 20.72755 36172 ft 473 kts 208°
2026-04-21 09:46 51.74189 20.67538 36169 ft 473 kts 208°
2026-04-21 09:46 51.68483 20.62411 36169 ft 473 kts 208°
2026-04-21 09:47 51.62734 20.57272 36166 ft 473 kts 208°
2026-04-21 09:47 51.56981 20.52141 36166 ft 473 kts 208°
2026-04-21 09:48 51.51232 20.47030 36167 ft 472 kts 208°
2026-04-21 09:48 51.45476 20.41932 36169 ft 472 kts 208°
2026-04-21 09:49 51.39721 20.36856 36164 ft 472 kts 208°
2026-04-21 09:49 51.33889 20.32046 36164 ft 471 kts 205°
2026-04-21 09:50 51.29918 20.29072 36164 ft 471 kts 204°
2026-04-21 09:50 51.21983 20.23292 36164 ft 471 kts 205°
2026-04-21 09:51 51.16058 20.18856 36161 ft 470 kts 205°
2026-04-21 09:51 51.10151 20.14363 36158 ft 470 kts 205°
2026-04-21 09:52 51.04243 20.09900 36154 ft 470 kts 205°
2026-04-21 09:52 50.98323 20.05481 36153 ft 470 kts 205°
2026-04-21 09:53 50.92406 20.01089 36152 ft 470 kts 205°
2026-04-21 09:53 50.86492 19.96700 36147 ft 469 kts 205°
2026-04-21 09:54 50.80578 19.92315 36150 ft 469 kts 205°
2026-04-21 09:54 50.74708 19.87970 36143 ft 469 kts 206°
2026-04-21 09:55 50.68797 19.83612 36146 ft 469 kts 206°
2026-04-21 09:55 50.62886 19.79261 36144 ft 469 kts 206°
2026-04-21 09:56 50.56977 19.74928 36131 ft 469 kts 206°
2026-04-21 09:56 50.51061 19.70605 36143 ft 469 kts 206°
2026-04-21 09:57 50.45146 19.66297 36131 ft 469 kts 206°
2026-04-21 09:57 50.39225 19.61994 36134 ft 469 kts 206°
2026-04-21 09:58 50.33267 19.57674 36134 ft 469 kts 206°
2026-04-21 09:58 50.27382 19.53446 36136 ft 468 kts 205°
2026-04-21 09:59 50.21415 19.49348 36133 ft 468 kts 204°
2026-04-21 09:59 50.15432 19.45331 36122 ft 468 kts 206°
2026-04-21 10:00 50.09461 19.41287 36132 ft 467 kts 205°
2026-04-21 10:00 50.03509 19.37227 36135 ft 467 kts 206°
2026-04-21 10:01 49.97557 19.33182 36132 ft 467 kts 205°
2026-04-21 10:01 49.91609 19.29159 36123 ft 466 kts 206°
2026-04-21 10:02 49.82700 19.23162 36131 ft 465 kts 206°
2026-04-21 10:03 49.76764 19.19174 36121 ft 465 kts 206°
2026-04-21 10:03 49.70829 19.15206 36112 ft 464 kts 206°
2026-04-21 10:04 49.64901 19.11237 36116 ft 464 kts 205°
2026-04-21 10:04 49.59977 19.07953 36115 ft 464 kts 206°
2026-04-21 10:05 49.54056 19.04018 36110 ft 463 kts 205°
2026-04-21 10:05 49.48134 19.00095 36100 ft 463 kts 206°
2026-04-21 10:06 49.42177 18.96291 36103 ft 464 kts 202°
2026-04-21 10:06 49.36067 18.93054 36090 ft 465 kts 200°
2026-04-21 10:07 49.29898 18.90043 36074 ft 465 kts 200°
2026-04-21 10:07 49.23753 18.86958 36081 ft 465 kts 201°
2026-04-21 10:08 49.17633 18.83779 36079 ft 464 kts 202°
2026-04-21 10:08 49.11514 18.80593 36073 ft 465 kts 201°
2026-04-21 10:09 49.05394 18.77431 36070 ft 464 kts 201°
2026-04-21 10:09 48.99269 18.74289 36081 ft 465 kts 201°
2026-04-21 10:10 48.93141 18.71166 36081 ft 464 kts 201°
2026-04-21 10:10 48.87018 18.68047 36068 ft 464 kts 201°
2026-04-21 10:11 48.80899 18.64935 36073 ft 464 kts 201°
2026-04-21 10:11 48.74779 18.61831 36077 ft 464 kts 201°
2026-04-21 10:12 48.68708 18.58749 36082 ft 463 kts 201°
2026-04-21 10:12 48.62566 18.55646 36072 ft 462 kts 201°
2026-04-21 10:13 48.56509 18.52597 36074 ft 462 kts 201°
2026-04-21 10:13 48.50418 18.49536 36073 ft 461 kts 201°
2026-04-21 10:14 48.44328 18.46483 36066 ft 461 kts 201°
2026-04-21 10:14 48.38243 18.43447 36076 ft 461 kts 201°
2026-04-21 10:15 48.32164 18.40420 36077 ft 460 kts 201°
2026-04-21 10:15 48.26089 18.37397 36058 ft 460 kts 201°
2026-04-21 10:16 48.20015 18.34386 36077 ft 459 kts 201°
2026-04-21 10:16 48.13951 18.31387 36080 ft 459 kts 201°
2026-04-21 10:17 48.07896 18.28398 36080 ft 458 kts 201°
2026-04-21 10:17 48.01843 18.25413 36070 ft 458 kts 202°
2026-04-21 10:18 47.95792 18.22445 36077 ft 457 kts 201°
2026-04-21 10:18 47.89741 18.19482 36073 ft 458 kts 201°
2026-04-21 10:19 47.83693 18.16531 36067 ft 457 kts 202°
2026-04-21 10:19 47.77647 18.13581 36076 ft 457 kts 202°
2026-04-21 10:20 47.71643 18.10663 36075 ft 457 kts 202°
2026-04-21 10:20 47.65602 18.07734 36079 ft 457 kts 202°
2026-04-21 10:21 47.59563 18.04809 36064 ft 456 kts 202°
2026-04-21 10:21 47.53527 18.01884 36058 ft 456 kts 202°
2026-04-21 10:22 47.47486 17.98977 36068 ft 457 kts 202°
2026-04-21 10:22 47.41441 17.96077 36071 ft 457 kts 202°
2026-04-21 10:23 47.35393 17.93178 36068 ft 457 kts 202°
2026-04-21 10:23 47.29339 17.90289 36071 ft 457 kts 202°
2026-04-21 10:24 47.23291 17.87405 36061 ft 457 kts 202°
2026-04-21 10:24 47.17236 17.84527 36073 ft 457 kts 202°
2026-04-21 10:25 47.11181 17.81652 36078 ft 457 kts 202°
2026-04-21 10:25 47.05124 17.78769 36081 ft 457 kts 202°
2026-04-21 10:26 46.99070 17.75919 36074 ft 457 kts 202°
2026-04-21 10:26 46.93053 17.73089 36080 ft 457 kts 202°
2026-04-21 10:27 46.87000 17.70234 36083 ft 457 kts 202°
2026-04-21 10:27 46.80945 17.67396 36071 ft 457 kts 203°
2026-04-21 10:28 46.74895 17.64569 36082 ft 456 kts 203°
2026-04-21 10:28 46.68846 17.61750 36087 ft 456 kts 203°
2026-04-21 10:29 46.62803 17.58935 36064 ft 456 kts 204°
2026-04-21 10:29 46.56764 17.56127 36078 ft 455 kts 204°
2026-04-21 10:30 46.50727 17.53325 36084 ft 455 kts 204°
2026-04-21 10:30 46.44695 17.50535 36062 ft 455 kts 204°
2026-04-21 10:31 46.38665 17.47752 36078 ft 455 kts 204°
2026-04-21 10:31 46.32637 17.44975 36086 ft 455 kts 204°
2026-04-21 10:32 46.26611 17.42204 36085 ft 454 kts 204°
2026-04-21 10:32 46.20589 17.39438 36071 ft 454 kts 205°
2026-04-21 10:33 46.14577 17.36685 36095 ft 453 kts 205°
2026-04-21 10:33 46.08574 17.33957 36093 ft 452 kts 205°
2026-04-21 10:34 46.02583 17.31239 36059 ft 451 kts 205°
2026-04-21 10:34 45.96662 17.28475 36070 ft 449 kts 207°
2026-04-21 10:35 45.90862 17.25263 36079 ft 446 kts 210°
2026-04-21 10:35 45.85124 17.21901 36061 ft 445 kts 210°
2026-04-21 10:36 45.79358 17.18621 36067 ft 446 kts 208°
2026-04-21 10:36 45.73553 17.15431 36072 ft 447 kts 208°
2026-04-21 10:37 45.67744 17.12254 36044 ft 447 kts 208°
2026-04-21 10:37 45.61950 17.09067 36075 ft 446 kts 208°
2026-04-21 10:38 45.56160 17.05881 36084 ft 446 kts 208°
2026-04-21 10:38 45.50376 17.02704 36087 ft 445 kts 208°
2026-04-21 10:39 45.44594 16.99531 36084 ft 445 kts 208°
2026-04-21 10:39 45.38815 16.96361 36087 ft 445 kts 208°
2026-04-21 10:40 45.33033 16.93209 36088 ft 445 kts 208°
2026-04-21 10:40 45.27241 16.90071 36050 ft 445 kts 208°
2026-04-21 10:41 45.21448 16.86929 36066 ft 446 kts 208°
2026-04-21 10:41 45.15646 16.83796 36075 ft 446 kts 208°
2026-04-21 10:42 45.09846 16.80671 36052 ft 446 kts 208°
2026-04-21 10:42 45.04039 16.77540 36054 ft 447 kts 208°
2026-04-21 10:43 44.98225 16.74407 36056 ft 447 kts 208°
2026-04-21 10:43 44.92407 16.71286 36029 ft 447 kts 207°
2026-04-21 10:44 44.86587 16.68159 36035 ft 448 kts 207°
2026-04-21 10:44 44.80799 16.65066 36036 ft 448 kts 207°
2026-04-21 10:45 44.74965 16.61958 36036 ft 448 kts 207°
2026-04-21 10:45 44.69129 16.58855 36025 ft 448 kts 207°
2026-04-21 10:46 44.63293 16.55754 36030 ft 449 kts 207°
2026-04-21 10:46 44.57450 16.52661 36037 ft 449 kts 207°
2026-04-21 10:47 44.51605 16.49573 36032 ft 449 kts 207°
2026-04-21 10:47 44.45765 16.46497 36029 ft 448 kts 207°
2026-04-21 10:48 44.39937 16.43422 36023 ft 448 kts 207°
2026-04-21 10:48 44.34109 16.40348 36011 ft 448 kts 207°
2026-04-21 10:49 44.28277 16.37300 36017 ft 447 kts 207°
2026-04-21 10:49 44.22451 16.34256 36009 ft 447 kts 207°
2026-04-21 10:50 44.17614 16.31724 35989 ft 446 kts 207°
2026-04-21 10:50 44.10834 16.28143 35996 ft 445 kts 208°
2026-04-21 10:51 44.05095 16.24958 35992 ft 444 kts 208°
2026-04-21 10:51 43.99370 16.21758 35971 ft 443 kts 209°
2026-04-21 10:52 43.93641 16.18588 36294 ft 443 kts 208°
2026-04-21 10:52 43.90780 16.17018 36551 ft 442 kts 208°
2026-04-21 10:52 43.87918 16.15453 36822 ft 442 kts 208°
2026-04-21 10:52 43.86025 16.14419 36929 ft 442 kts 208°
2026-04-21 10:53 43.82193 16.12327 36959 ft 442 kts 208°
2026-04-21 10:53 43.77435 16.09724 36961 ft 442 kts 208°
2026-04-21 10:54 43.71714 16.06602 36959 ft 442 kts 208°
2026-04-21 10:54 43.65985 16.03491 36962 ft 442 kts 208°
2026-04-21 10:55 43.60256 16.00380 36969 ft 442 kts 208°
2026-04-21 10:55 43.54525 15.97276 36967 ft 443 kts 208°
2026-04-21 10:56 43.48784 15.94170 36961 ft 443 kts 208°
2026-04-21 10:56 43.43040 15.91072 36967 ft 444 kts 208°
2026-04-21 10:57 43.37289 15.87977 36975 ft 444 kts 208°
2026-04-21 10:57 43.31544 15.84880 36977 ft 444 kts 208°
2026-04-21 10:58 43.25794 15.81791 36962 ft 444 kts 208°
2026-04-21 10:58 43.20025 15.78711 36976 ft 445 kts 208°
2026-04-21 10:59 43.14251 15.75635 36982 ft 445 kts 208°
2026-04-21 10:59 43.08515 15.72580 36972 ft 445 kts 208°
2026-04-21 11:00 43.02743 15.69509 36993 ft 445 kts 208°
2026-04-21 11:00 42.96965 15.66438 36999 ft 445 kts 208°
2026-04-21 11:01 42.91189 15.63378 36977 ft 445 kts 208°
2026-04-21 11:01 42.85413 15.60318 36979 ft 446 kts 208°
2026-04-21 11:02 42.76738 15.55744 36987 ft 446 kts 208°
2026-04-21 11:02 42.70958 15.52694 36983 ft 445 kts 208°
2026-04-21 11:03 42.65181 15.49663 36992 ft 445 kts 207°
2026-04-21 11:03 42.59402 15.46641 36993 ft 445 kts 207°
2026-04-21 11:04 42.53630 15.43619 36973 ft 445 kts 208°
2026-04-21 11:04 42.47858 15.40605 36979 ft 445 kts 208°
2026-04-21 11:05 42.42086 15.37598 36981 ft 444 kts 208°
2026-04-21 11:05 42.36314 15.34600 36971 ft 444 kts 208°
2026-04-21 11:06 42.30539 15.31606 36984 ft 445 kts 208°
2026-04-21 11:06 42.24761 15.28621 36971 ft 445 kts 208°
2026-04-21 11:07 42.19029 15.25657 36958 ft 444 kts 208°
2026-04-21 11:07 42.13258 15.22669 36965 ft 444 kts 208°
2026-04-21 11:08 42.07478 15.19698 36975 ft 445 kts 208°
2026-04-21 11:08 42.01694 15.16729 36979 ft 445 kts 208°
2026-04-21 11:09 41.95918 15.13765 36959 ft 445 kts 208°
2026-04-21 11:09 41.90133 15.10813 36967 ft 445 kts 208°
2026-04-21 11:10 41.84348 15.07860 36969 ft 445 kts 208°
2026-04-21 11:10 41.78565 15.04903 36976 ft 445 kts 208°
2026-04-21 11:11 41.72775 15.01950 36971 ft 445 kts 208°
2026-04-21 11:11 41.66985 14.99005 36966 ft 445 kts 208°
2026-04-21 11:12 41.61192 14.96069 36949 ft 445 kts 207°
2026-04-21 11:12 41.55402 14.93142 36960 ft 445 kts 207°
2026-04-21 11:13 41.49610 14.90224 36955 ft 445 kts 208°
2026-04-21 11:13 41.43822 14.87311 36956 ft 445 kts 208°
2026-04-21 11:14 41.38031 14.84408 36947 ft 445 kts 207°
2026-04-21 11:14 41.32247 14.81498 36952 ft 444 kts 207°
2026-04-21 11:15 41.26181 14.79442 36956 ft 453 kts 199°
2026-04-21 11:15 41.20004 14.77743 36941 ft 454 kts 198°
2026-04-21 11:16 41.13825 14.76032 36954 ft 454 kts 198°
2026-04-21 11:16 41.07641 14.74317 36972 ft 454 kts 198°
2026-04-21 11:17 41.01456 14.72613 36956 ft 454 kts 198°
2026-04-21 11:17 40.95276 14.70910 36970 ft 454 kts 198°
2026-04-21 11:18 40.89092 14.69207 36984 ft 454 kts 198°
2026-04-21 11:18 40.82948 14.67522 36968 ft 454 kts 198°
2026-04-21 11:19 40.76761 14.65840 36983 ft 454 kts 198°
2026-04-21 11:19 40.70583 14.64160 36993 ft 453 kts 198°
2026-04-21 11:20 40.64410 14.62470 36994 ft 453 kts 198°
2026-04-21 11:20 40.58239 14.60783 36986 ft 453 kts 198°
2026-04-21 11:21 40.52073 14.59110 36997 ft 453 kts 198°
2026-04-21 11:21 40.45903 14.57442 37000 ft 452 kts 198°
2026-04-21 11:22 40.39743 14.55764 36988 ft 452 kts 198°
2026-04-21 11:22 40.33582 14.54095 36996 ft 452 kts 198°
2026-04-21 11:23 40.27422 14.52443 36999 ft 452 kts 198°
2026-04-21 11:23 40.21258 14.50788 36973 ft 452 kts 198°
2026-04-21 11:24 40.15102 14.49133 36988 ft 452 kts 198°
2026-04-21 11:24 40.08940 14.47480 36999 ft 452 kts 198°
2026-04-21 11:25 40.02777 14.45826 36999 ft 452 kts 198°
2026-04-21 11:25 39.96614 14.44185 36986 ft 452 kts 197°
2026-04-21 11:26 39.90449 14.42555 36997 ft 452 kts 198°
2026-04-21 11:26 39.84286 14.40913 37001 ft 452 kts 198°
2026-04-21 11:27 39.78123 14.39269 37005 ft 452 kts 198°
2026-04-21 11:27 39.71962 14.37626 37000 ft 452 kts 198°
2026-04-21 11:28 39.65802 14.35987 36998 ft 452 kts 197°
2026-04-21 11:28 39.59637 14.34360 36999 ft 452 kts 198°
2026-04-21 11:29 39.53474 14.32727 36986 ft 452 kts 198°
2026-04-21 11:29 39.47308 14.31111 36993 ft 452 kts 197°
2026-04-21 11:30 39.41141 14.29507 36997 ft 452 kts 197°
2026-04-21 11:30 39.34976 14.27903 36987 ft 452 kts 197°
2026-04-21 11:31 39.28670 14.27129 36990 ft 463 kts 181°